Погода Лобамбана 2 недели

Лобамба, Свазиленд

15 - 28 июля
  • 15июля
    Сегодня
    +7°
    +21°
    Ясно и безоблачно
    ВремяПогодаТемператураВлажностьДавлениеВетер, м/сВероятность осадков
    02:00Облачно с прояснениями+13°C71 %710 мм0.6 м/с11 %
    05:00Облачно с прояснениями+11°C67 %710 мм0.8 м/с19 %
    08:00Облачно с прояснениями+11°C56 %711 мм1.4 м/с13 %
    11:00Ясно и безоблачно+17°C58 %711 мм1.7 м/с11 %
    14:00Ясно и безоблачно+20°C51 %710 мм3.1 м/с5 %
    17:00Ясно и безоблачно+18°C60 %710 мм2.8 м/с5 %
    20:00Ясно и безоблачно+14°C80 %710 мм1.9 м/с5 %
    23:00Облачно с прояснениями+13°C91 %710 мм1.2 м/с13 %
  • 16июля
    Вторник
    +12°
    +25°
    Ясно и безоблачно
    ВремяПогодаТемператураВлажностьДавлениеВетер, м/сВероятность осадков
    02:00Облачно с прояснениями+11°C93 %709 мм1.1 м/с17 %
    05:00Ясно и безоблачно+9°C83 %708 мм1.8 м/с6 %
    08:00Ясно и безоблачно+11°C47 %709 мм2.0 м/с3 %
    11:00Ясно и безоблачно+21°C25 %709 мм0.9 м/с5 %
    14:00Ясно и безоблачно+25°C30 %707 мм2.1 м/с5 %
    17:00Ясно и безоблачно+20°C58 %707 мм1.3 м/с5 %
    20:00Ясно и безоблачно+15°C65 %707 мм1.5 м/с5 %
    23:00Ясно и безоблачно+13°C41 %707 мм2.5 м/с5 %
  • 17июля
    Среда
    +12°
    +28°
    Ясно и безоблачно
    ВремяПогодаТемператураВлажностьДавлениеВетер, м/сВероятность осадков
    02:00Ясно и безоблачно+15°C29 %707 мм3.3 м/с5 %
    05:00Ясно и безоблачно+14°C30 %707 мм3.9 м/с5 %
    08:00Ясно и безоблачно+15°C34 %709 мм4.0 м/с5 %
    11:00Ясно и безоблачно+24°C22 %710 мм2.3 м/с5 %
    14:00Ясно и безоблачно+27°C18 %708 мм1.3 м/с5 %
    17:00Ясно и безоблачно+22°C39 %708 мм1.9 м/с5 %
    20:00Ясно и безоблачно+17°C44 %709 мм0.7 м/с5 %
    23:00Ясно и безоблачно+14°C52 %708 мм2.3 м/с5 %
  • 18июля
    Четверг
    +13°
    +29°
    Ясно и безоблачно
    ВремяПогодаТемператураВлажностьДавлениеВетер, м/сВероятность осадков
    02:00Ясно и безоблачно+14°C43 %708 мм2.3 м/с5 %
    05:00Ясно и безоблачно+13°C32 %707 мм2.6 м/с5 %
    08:00Ясно и безоблачно+15°C27 %708 мм2.6 м/с5 %
    11:00Ясно и безоблачно+25°C19 %709 мм0.7 м/с5 %
    14:00Ясно и безоблачно+29°C18 %707 мм2.5 м/с5 %
    17:00Ясно и безоблачно+24°C32 %707 мм1.9 м/с5 %
    20:00Ясно и безоблачно+19°C35 %707 мм2.5 м/с5 %
    23:00Ясно и безоблачно+18°C29 %707 мм2.7 м/с5 %
  • 19июля
    Пятница
    +10°
    +24°
    Ясно и безоблачно
    ВремяПогодаТемператураВлажностьДавлениеВетер, м/сВероятность осадков
    02:00Ясно и безоблачно+17°C19 %706 мм3.5 м/с5 %
    05:00Ясно и безоблачно+16°C25 %706 мм3.1 м/с5 %
    08:00Ясно и безоблачно+16°C30 %708 мм0.5 м/с5 %
    11:00Ясно и безоблачно+21°C28 %708 мм1.9 м/с5 %
    14:00Ясно и безоблачно+24°C42 %706 мм3.0 м/с5 %
    17:00Ясно и безоблачно+21°C59 %706 мм1.5 м/с5 %
    20:00Ясно и безоблачно+17°C68 %706 мм0.9 м/с5 %
    23:00Практически безоблачно+14°C64 %706 мм1.0 м/с19 %
Мы используем cookies
Соглашаюсь